Location: Unspecified
(43.4354°N, 0.0000°E)
Time: 16:45:04
(UTC+00:00)

Vanguard 2 Rocket - Pass Details

Date: 23 June 2019
Orbit: 554 x 3326 km, 32.9° (Epoch: 21 July)

Event Time Altitude Azimuth Distance (km) Brightness Sun altitude
Rises 03:04:52 0° 274° (W) 5,765 10.6 -11.1°
Reaches altitude 10° 03:08:44 10° 265° (W) 5,109 10.3 -10.6°
Maximum altitude 03:22:09 34° 209° (SSW) 4,310 9.8 -8.9°
Drops below altitude 10° 03:38:44 10° 155° (SSE) 6,261 11.0 -6.7°
Sets 03:44:16 0° 147° (SSE) 7,178 11.4 -5.9°
